Location: Zagreb
(45.8000°N, 16.0000°E)
Time: 01:26:14
(UTC+01:00)

NUDT-PHONESAT - Pass Details

Date: 31 October 2020
Orbit: 481 x 500 km, 97.4° (Epoch: 30 November)

Event Time Altitude Azimuth Distance (km) Brightness Sun altitude
Rises 18:12:41 0° 186° (S) 2,585 ? -16.0°
Reaches altitude 10° 18:14:52 10° 195° (SSW) 1,707 ? -16.4°
Maximum altitude 18:18:16 35° 263° (W) 829 ? -17.0°
Drops below altitude 10° 18:21:42 10° 330° (NNW) 1,721 ? -17.6°
Sets 18:23:56 0° 340° (NNW) 2,609 ? -18.0°
